www.pogodaiklimat.ru

Погода и климат >> Архив погоды >> Гондурас >> Yoro


ПОГОДА в Yoro

  • Прогноз погоды в Yoro
  • Монитор погоды в Yoro
  • Климат города

АРХИВ ПОГОДЫ в Yoro

Время (UTC), дата Ветер
(напр.,м/с)
 
Видим.   Явления Облачность Т
(С)
Тd
(С)
f
(%)
Тe
(С)
Тes
(С)
Комфортность P
(гПа)
Po
(гПа)
Тmin
(С)
Tmax
(С)
R
(мм)
R24
(мм)
S
(см)
00 14.02 ЮВ 3 10 км осадки на расстоянии {туман} 9/5 600 м
[Sc Ac As]
+21.0 +19.3 90 +26 +26 душно 1018.5 942.8 +17.0 +27.6
12 14.02 С 1 10 км дымка 9/5 600 м
[Sc Ac As]
+16.2 +16.0 99 +17 +17 1020.9 944.4 +16.0 +27.6
15 14.02 З 2 10 км мгла {туман} 8/4 600 м
[Sc diur, vesp Ac trans]
+20.6 +18.9 90 +25 +29 комфорт 1022.5 945.7
18 14.02 В 4 10 км мгла {туман} 6/6 750 м
[Cu med, cong]
+25.6 +17.4 61 +30 +34 душно 1020.4 945.1 +16.0 +26.4
21 14.02 В 2 10 км мгла {туман} 5/5 750 м
[Cu med, cong]
+26.8 +17.5 57 +31 +35 душно 1017.7 942.5
00 15.02 В 2 10 км мгла {туман} 8/4 700 м
[Sc diur, vesp Ac As]
+26.4 +18.8 63 +31 +31 душно 1018.2 941.9 +16.0 +26.8
12 15.02 Ю 1 10 км дымка 4/4 600 м
[Sc]
+15.4 +15.2 99 +16 +16 1020.9 943.5 +15.0 +26.8
15 15.02 З 2 10 км мгла {туман} 4/4 600 м
[Sc diur, vesp]
+19.6 +17.8 89 +23 +28 комфорт 1021.7 944.8
18 15.02 В 3 10 км мгла {туман} 4/4 700 м
[Cu hum]
+27.4 +16.5 51 +31 +39 душно 1019.3 944.1 +15.0 +27.4
21 15.02 В 4 10 км мгла {туман} 4/4 700 м
[Cu hum]
+28.4 +16.4 48 +32 +35 душно 1015.2 941.2
00 16.02 С 3 10 км мгла {туман} 8/4 700 м
[Sc diur, vesp Ac trans]
+24.4 +18.0 68 +29 +29 душно 1015.8 941.2 +15.0 +28.4
12 16.02 штиль 0 10 км дымка 3/3 600 м
[Sc]
+13.4 +13.1 98 +13 +13 1020.6 942.4 +12.8 +28.4
15 16.02 штиль 0 10 км мгла {туман} 4/4 700 м
[Sc diur, vesp]
+19.0 +17.2 89 +20 +28 1020.1 943.2
18 16.02 В 3 10 км мгла {туман} 4/4 750 м
[Cu med, cong]
+26.5 +17.0 56 +30 +39 душно 1016.0 941.7 +12.8 +26.5
21 16.02 СВ 3 10 км мгла {туман} 5/5 750 м
[Cu med, cong]
+28.0 +16.2 49 +31 +34 душно 1013.1 939.4
00 17.02 В 2 10 км мгла {туман} 4/4 700 м
[Sc diur, vesp]
+24.2 +18.1 69 +29 +29 душно 1014.4 939.6 +12.8 +28.6
12 17.02 штиль 0 10 км дымка 3/3 600 м
[Sc]
+13.4 +13.2 99 +13 +13 1019.6 941.6 +13.0 +28.6
15 17.02 В 1 10 км мгла {туман} 8/4 700 м
[Sc diur, vesp Ac trans]
+18.0 +16.2 89 +19 +23 1020.5 943.2
18 17.02 В 3 10 км мгла {туман} 8/4 750 м
[Cu med, cong Ac trans]
+25.0 +17.7 64 +29 +35 душно 1016.3 941.7 +13.0 +25.0
21 17.02 В 4 10 км мгла {туман} 4/4 750 м
[Cu med, cong]
+27.8 +16.3 50 +31 +34 душно 1014.7 940.1
00 18.02 В 1 10 км мгла {туман} 4/4 750 м
[Cu hum]
+25.0 +17.4 63 +29 +29 душно 1015.2 940.1 +13.0 +28.0
12 18.02 штиль 0 10 км дымка 6/6 600 м
[Sc]
+17.6 +17.2 98 +18 +18 1018.4 941.1 +17.0 +28.0
15 18.02 штиль 0 10 км мгла {туман} 4/4 700 м
[Sc diur, vesp]
+23.0 +19.0 78 +29 +37 очень
душно
1016.8 941.9
18 18.02 СВ 4 10 км мгла {туман} 4/4 750 м
[Cu med, cong]
+27.5 +16.1 50 +31 +38 душно 1015.8 941.0 +17.0 +27.5
21 18.02 С 3 10 км мгла {туман} 4/4 750 м
[Cu med, cong]
+29.0 +15.3 43 +32 +35 душно 1013.1 939.0
00 19.02 штиль 0 10 км мгла {туман} 4/4 750 м
[Cu hum]
+25.2 +17.0 60 +29 +29 душно 1014.1 939.2 +17.0 +29.2
12 19.02 штиль 0 10 км дымка 4/4 600 м
[Sc]
+14.8 +14.6 99 +14 +14 1017.9 940.9 +14.4 +29.2
18 19.02 В 4 10 км мгла {туман} 8/4 750 м
[Cu med, cong Ac trans]
+25.0 +17.4 63 +29 +33 душно 1015.2 940.5 +14.4 +25.0
21 19.02 СВ 3 10 км мгла {туман} 8/4 750 м
[Cu med, cong Ac trans]
+25.4 +17.6 62 +30 +32 душно 1014.1 939.5
00 20.02 В 3 10 км мгла {туман} 4/4 700 м
[Sc diur, vesp]
+23.0 +18.4 75 +29 +29 очень
душно
1013.6 938.8 +14.4 +25.6
12 20.02 штиль 0 10 км дымка 4/4 600 м
[Sc]
+14.4 +14.2 99 +14 +14 1018.2 940.4 +14.0 +25.6
15 20.02 штиль 0 10 км мгла {туман} 4/4 700 м
[Sc diur, vesp]
+21.0 +18.1 84 +25 +33 комфорт 1017.4 941.1
18 20.02 В 2 10 км мгла {туман} 5/5 750 м
[Cu med, cong]
+26.0 +17.6 60 +30 +40 душно 1015.0 940.5 +14.0 +26.0
21 20.02 В 4 10 км мгла {туман} 6/6 750 м
[Cu med, cong]
+26.4 +17.7 59 +31 +33 душно 1012.8 938.8

 

Местоположение метеостанции Yoro (Гондурас): широта 15.17 долгота -87.11 высота над уровнем моря 670 м.

В архиве по умолчанию представлена погода в Yoro за последнюю неделю. Архивные данные за месяц целиком и за предыдущие месяцы, начиная с января 2011 года, Вы можете получить, выбрав интересующий диапазон дат из раскрывающегося списка и нажав кнопку "Ввод!".

Внимание! Время в таблицах - всемирное. Для получения местного времени необходимо прибавить поправку, которая в Yoro равна -6 ч.

Смотрите также архив погоды в соседних городах и на ближайших метеорологических станциях:

Погода в La Ceiba (Гондурас) (68 км)
Погода в Tela (Гондурас) (73 км)
Погода в La Mesa (Гондурас) (93 км)
Погода в Tegucigalpa (Гондурас) (125 км)
Погода в Catacamas (Гондурас) (130 км)
Погода в Roatan (Гондурас) (143 км)
Погода в La Esperanza (Гондурас) (147 км)
Погода в Trujillo (Гондурас) (152 км)
Погода в Puerto Barrios (Гватемала) (171 км)
Погода в Santa Rosa De Copan (Гондурас) (185 км)

Пояснения к столбцам:

Ветер - указаны скорость ветра в м/с - средняя за 10 мин, порывы в срок и между сроками (в фигурных скобках) и направление, откуда дует ветер: С - северный, СВ - северо-восточный, В - восточный, ЮВ - юго-восточный, Ю - южный, ЮЗ - юго-западный, З - западный, СЗ - северо-западный.
Видимость - горизонтальная дальность видимости в метрах или километрах. При видимости от 1 до 10 км при отсутствии осадков обычно наблюдается дымка, при ухудшении видимости до 1 км и менее - туман. В сухую погоду видимость может ухудшаться дымом, пылью или мглою.
Явления - указаны атмосферные явления, наблюдавшиеся в срок или в последний час перед сроком; фигурными скобками обозначены явления, наблюдавшиеся между сроками (за 1-3 часа до срока); квадратными скобками обозначены град или гололедные отложения с указанием их диаметра в мм.
Облачность - указаны через наклонную черту общая и нижняя облачность в баллах и высота нижней границы облаков в метрах; квадратными скобками обозначены формы облаков: Ci - перистые, Cs - перисто-слоистые, Cc - перисто-кучевые, Ac - высококучевые, As - высокослоистые, Sc - слоисто-кучевые, Ns - слоисто-дождевые, Cu - кучевые, Cb - кучево-дождевые. Подробнее классификацию облаков см. в Атласе облаков (PDF).
T - Температура воздуха - температура, измеренная на высоте 2 м над землей.
Td - Температура точки росы - температура, при понижении до которой содержащийся в воздухе водяной пар достигнет насыщения.
f - Относительная влажность воздуха - влажноcть воздуха, измеренная на высоте 2 м над землей.
Te - Эффективная температура - температура, которую ощущает одетый по сезону человек в тени. Характеристика душности погоды. При расчете учитывается влияние влажности воздуха и скорости ветра на теплоощущения человека.
Tes - Эффективная температура на солнце - температура, которую ощущает человек, с поправкой на солнечный нагрев. Характеристика знойности погоды. Зависит от высоты солнца над горизонтом, облачности и скорости ветра. Ночью, в пасмурную погоду, а также при ветре 12 м/с и более поправка равна нулю.
P - Атмосферное давление - приведенное к уровню моря атмосферное давление.
Po - Атмосферное давление - измеренное на уровне метеостанции атмосферное давление.
Tmin - Минимальная температура - минимум температуры воздуха на высоте 2 м над землей.
Tmax - Максимальная температура - максимум температуры воздуха на высоте 2 м над землей.
R - Количество осадков - Количество выпавших осадков за период времени, мм. При наведении курсора мыши на число - период времени, за который выпало указанное количество осадков.
R24 - Количество осадков - Количество выпавших осадков за 24 часа, мм.
S - Снежный покров - Высота снежного покрова, см. При наведении курсора мыши на число - состояние снежного покрова и степень покрытия местности в баллах.